When you browse on this site, cookies collect data to enhance your experience and personalize the content and advertising you see.
Visit our Privacy Policy to learn more. By continuing to use the site, you agree to this use of cookies and data.

Meteo pe oră la Budapesta

Astăzi, 14 August, Vineri

Timp Temperatura Precipitaţii Vânt Presiune Umiditate
00:00 +25°C° 0 mm 1 m/s 751 mmHg 52%
01:00 +25°C° 0 mm 1 m/s 752 mmHg 53%
02:00 +25°C° 0 mm 1 m/s 751 mmHg 54%
03:00 +25°C° 0 mm 1 m/s 751 mmHg 55%
04:00 +24°C° 0 mm 1 m/s 751 mmHg 56%
05:00 +24°C° 0 mm 2 m/s 751 mmHg 56%
06:00 +24°C° 0 mm 2 m/s 751 mmHg 57%
07:00 +24°C° 0 mm 1 m/s 752 mmHg 58%
08:00 +25°C° 0 mm 2 m/s 751 mmHg 58%
09:00 +25°C° 0 mm 2 m/s 751 mmHg 58%
10:00 +25°C° 0 mm 3 m/s 751 mmHg 58%
11:00 +25°C° 0 mm 3 m/s 751 mmHg 58%
12:00 +26°C° 0 mm 3 m/s 751 mmHg 57%
13:00 +27°C° 0 mm 2 m/s 751 mmHg 51%
14:00 +28°C° 0 mm 2 m/s 751 mmHg 50%
15:00 +28°C° 0 mm 2 m/s 750 mmHg 48%
16:00 +28°C° 0 mm 2 m/s 750 mmHg 47%
17:00 +27°C° 0 mm 2 m/s 750 mmHg 49%
18:00 +26°C° 0 mm 1 m/s 750 mmHg 52%
19:00 +25°C° 0 mm 1 m/s 750 mmHg 55%
20:00 +25°C° 0 mm 1 m/s 750 mmHg 55%
21:00 +24°C° 0 mm 1 m/s 750 mmHg 56%
22:00 +24°C° 0 mm 1 m/s 750 mmHg 57%
23:00 +23°C° 0 mm 1 m/s 750 mmHg 57%

Mâine, 15 August, Sâmbătă

Timp Temperatura Precipitaţii Vânt Presiune Umiditate
00:00 +23°C° 0 mm 1 m/s 750 mmHg 58%
01:00 +23°C° 0 mm 1 m/s 750 mmHg 59%
02:00 +23°C° 0 mm 1 m/s 750 mmHg 61%
03:00 +22°C° 0 mm 1 m/s 750 mmHg 63%
04:00 +22°C° 0 mm 1 m/s 750 mmHg 65%
05:00 +23°C° 0 mm 1 m/s 750 mmHg 65%
06:00 +24°C° 0 mm 1 m/s 750 mmHg 64%
07:00 +25°C° 0 mm 1 m/s 750 mmHg 63%
08:00 +26°C° 0 mm 1 m/s 751 mmHg 58%
09:00 +28°C° 0 mm 1 m/s 751 mmHg 54%
10:00 +29°C° 0 mm 1 m/s 751 mmHg 49%
11:00 +30°C° 0 mm 1 m/s 751 mmHg 46%
12:00 +31°C° 0 mm 1 m/s 750 mmHg 43%
13:00 +32°C° 0 mm 1 m/s 750 mmHg 40%
14:00 +32°C° 0 mm 1 m/s 750 mmHg 39%
15:00 +32°C° 0 mm 1 m/s 749 mmHg 39%
16:00 +32°C° 0 mm 1 m/s 749 mmHg 39%
17:00 +30°C° 0 mm 1 m/s 749 mmHg 44%
18:00 +29°C° 0 mm 1 m/s 749 mmHg 48%
19:00 +28°C° 0 mm 2 m/s 749 mmHg 53%
20:00 +27°C° 0.3 mm 2 m/s 749 mmHg 57%
21:00 +26°C° 0.3 mm 2 m/s 749 mmHg 62%
22:00 +25°C° 0.3 mm 2 m/s 750 mmHg 66%
23:00 +24°C° 0.5 mm 2 m/s 750 mmHg 69%

Poimâine, 16 August, Duminică

Timp Temperatura Precipitaţii Vânt Presiune Umiditate
00:00 +23°C° 0.5 mm 2 m/s 750 mmHg 72%
01:00 +23°C° 0.5 mm 2 m/s 749 mmHg 76%
02:00 +21°C° 0.4 mm 2 m/s 749 mmHg 77%
03:00 +21°C° 0.4 mm 2 m/s 750 mmHg 79%
04:00 +21°C° 0.4 mm 2 m/s 750 mmHg 80%
05:00 +21°C° 0.6 mm 2 m/s 750 mmHg 82%
06:00 +21°C° 0.6 mm 2 m/s 750 mmHg 84%
07:00 +21°C° 0.6 mm 2 m/s 750 mmHg 85%
08:00 +21°C° 2.4 mm 3 m/s 751 mmHg 86%
09:00 +21°C° 2.4 mm 3 m/s 751 mmHg 87%
10:00 +21°C° 2.4 mm 3 m/s 751 mmHg 88%
11:00 +22°C° 0.5 mm 3 m/s 751 mmHg 83%
12:00 +24°C° 0.5 mm 3 m/s 751 mmHg 77%
13:00 +25°C° 0.5 mm 3 m/s 751 mmHg 72%
14:00 +26°C° 0.4 mm 3 m/s 751 mmHg 69%
15:00 +27°C° 0.4 mm 2 m/s 750 mmHg 66%
16:00 +28°C° 0.4 mm 2 m/s 750 mmHg 63%
17:00 +26°C° 0.2 mm 2 m/s 750 mmHg 68%
18:00 +25°C° 0.2 mm 3 m/s 750 mmHg 74%
19:00 +24°C° 0.2 mm 3 m/s 750 mmHg 79%
20:00 +22°C° 0.4 mm 3 m/s 751 mmHg 81%
21:00 +22°C° 0.4 mm 3 m/s 751 mmHg 83%
22:00 +21°C° 0.4 mm 2 m/s 751 mmHg 86%
23:00 +21°C° 0.2 mm 2 m/s 751 mmHg 86%

17 August, Luni

Timp Temperatura Precipitaţii Vânt Presiune Umiditate
00:00 +21°C° 0.2 mm 2 m/s 751 mmHg 87%
01:00 +20°C° 0.2 mm 2 m/s 751 mmHg 88%
02:00 +20°C° 0.2 mm 2 m/s 751 mmHg 89%
03:00 +20°C° 0.2 mm 2 m/s 751 mmHg 90%
04:00 +20°C° 0.2 mm 2 m/s 750 mmHg 90%
05:00 +21°C° 0.1 mm 2 m/s 751 mmHg 86%
06:00 +23°C° 0.1 mm 2 m/s 751 mmHg 81%
07:00 +24°C° 0.1 mm 2 m/s 751 mmHg 76%
08:00 +25°C° 0 mm 3 m/s 751 mmHg 69%
09:00 +27°C° 0 mm 3 m/s 751 mmHg 62%
10:00 +29°C° 0 mm 4 m/s 751 mmHg 54%
11:00 +30°C° 0 mm 4 m/s 750 mmHg 51%
12:00 +32°C° 0 mm 4 m/s 750 mmHg 48%
13:00 +33°C° 0 mm 4 m/s 750 mmHg 45%
14:00 +33°C° 0 mm 4 m/s 749 mmHg 44%
15:00 +33°C° 0 mm 3 m/s 749 mmHg 43%
16:00 +33°C° 0 mm 3 m/s 748 mmHg 42%
17:00 +31°C° 0 mm 3 m/s 748 mmHg 47%
18:00 +29°C° 0 mm 2 m/s 748 mmHg 51%
19:00 +28°C° 0 mm 2 m/s 748 mmHg 55%
20:00 +27°C° 0.3 mm 2 m/s 749 mmHg 59%
21:00 +26°C° 0.3 mm 2 m/s 749 mmHg 62%
22:00 +25°C° 0.3 mm 2 m/s 749 mmHg 65%
23:00 +25°C° 0.1 mm 2 m/s 749 mmHg 67%

18 August, Marţi

Timp Temperatura Precipitaţii Vânt Presiune Umiditate
00:00 +24°C° 0.1 mm 2 m/s 749 mmHg 68%
01:00 +24°C° 0.1 mm 2 m/s 748 mmHg 70%
02:00 +23°C° 0.1 mm 2 m/s 748 mmHg 72%
03:00 +23°C° 0.1 mm 1 m/s 748 mmHg 74%
04:00 +22°C° 0.1 mm 1 m/s 748 mmHg 76%
05:00 +23°C° 0 mm 1 m/s 748 mmHg 74%
06:00 +24°C° 0 mm 1 m/s 749 mmHg 71%
07:00 +25°C° 0 mm 2 m/s 749 mmHg 69%
08:00 +26°C° 0 mm 2 m/s 749 mmHg 65%
09:00 +27°C° 0 mm 2 m/s 749 mmHg 62%
10:00 +29°C° 0 mm 3 m/s 749 mmHg 58%
11:00 +29°C° 0 mm 3 m/s 749 mmHg 58%
12:00 +30°C° 0 mm 4 m/s 749 mmHg 58%
13:00 +30°C° 0 mm 4 m/s 749 mmHg 57%
14:00 +30°C° 0 mm 4 m/s 748 mmHg 57%
15:00 +30°C° 0 mm 4 m/s 748 mmHg 57%
16:00 +30°C° 0 mm 4 m/s 748 mmHg 56%
17:00 +28°C° 0 mm 4 m/s 748 mmHg 62%
18:00 +27°C° 0 mm 3 m/s 748 mmHg 67%
19:00 +26°C° 0 mm 3 m/s 748 mmHg 72%
20:00 +25°C° 0 mm 3 m/s 748 mmHg 73%
21:00 +24°C° 0 mm 3 m/s 748 mmHg 73%
22:00 +23°C° 0 mm 2 m/s 748 mmHg 74%
23:00 +23°C° 0 mm 2 m/s 748 mmHg 73%

19 August, Miercuri

Timp Temperatura Precipitaţii Vânt Presiune Umiditate
00:00 +23°C° 0 mm 2 m/s 748 mmHg 71%
01:00 +21°C° 0 mm 2 m/s 748 mmHg 70%
02:00 +21°C° 0 mm 2 m/s 748 mmHg 71%
03:00 +21°C° 0 mm 2 m/s 748 mmHg 73%
04:00 +21°C° 0 mm 1 m/s 748 mmHg 75%
05:00 +22°C° 0 mm 1 m/s 748 mmHg 74%
06:00 +23°C° 0 mm 2 m/s 748 mmHg 72%
07:00 +23°C° 0 mm 2 m/s 748 mmHg 71%
08:00 +25°C° 0 mm 2 m/s 748 mmHg 65%
09:00 +27°C° 0 mm 1 m/s 748 mmHg 60%
10:00 +28°C° 0 mm 1 m/s 748 mmHg 54%
11:00 +29°C° 0 mm 2 m/s 748 mmHg 51%
12:00 +30°C° 0 mm 2 m/s 747 mmHg 48%
13:00 +31°C° 0 mm 2 m/s 747 mmHg 44%
14:00 +30°C° 0 mm 3 m/s 747 mmHg 46%
15:00 +30°C° 0 mm 4 m/s 746 mmHg 47%
16:00 +30°C° 0 mm 5 m/s 746 mmHg 49%
17:00 +28°C° 0.1 mm 5 m/s 746 mmHg 54%
18:00 +26°C° 0.1 mm 5 m/s 746 mmHg 59%
19:00 +23°C° 0.1 mm 4 m/s 747 mmHg 64%
20:00 +23°C° 0.1 mm 4 m/s 747 mmHg 66%
21:00 +22°C° 0.1 mm 4 m/s 747 mmHg 68%
22:00 +21°C° 0.1 mm 3 m/s 747 mmHg 70%
23:00 +21°C° 0 mm 3 m/s 747 mmHg 71%
Arată mai mult